This is the latest recevied weather packets stored in our database for station/object K0CPM-2. If no packets are shown the sender has not sent any weather packets the latest 1 day(s).
| Time | Temp. | Humidity | Pressure | Rain* | Wind** | Luminosity | Snow |
|---|---|---|---|---|---|---|---|
| 1836274701 | 26.11° C | 83% | 1014 hPa | 0 mm | 0 m/s | - | - |
| 1778047246 | 22.78° C | 92% | 1009.1 hPa | 0 mm | 0 m/s | - | - |
| 1778046345 | 22.78° C | 92% | 1009.1 hPa | 0 mm | 0.45 m/s, 123° | - | - |
| 1778045444 | 22.78° C | 92% | 1009.2 hPa | 0 mm | 0.45 m/s, 107° | - | - |
| 1778044539 | 22.78° C | 92% | 1009.4 hPa | 0 mm | 0.89 m/s, 41° | - | - |
| 1778043634 | 22.78° C | 92% | 1009.3 hPa | 0 mm | 0.89 m/s, 132° | - | - |
| 1778042736 | 22.78° C | 91% | 1009.4 hPa | 0 mm | 0.45 m/s, 83° | - | - |
| 1778041832 | 22.78° C | 91% | 1009.5 hPa | 0 mm | 0.45 m/s, 129° | - | - |
| 1778040937 | 22.78° C | 91% | 1009.5 hPa | 0 mm | 0.45 m/s, 124° | - | - |
| 1778040031 | 22.78° C | 91% | 1009.4 hPa | 0 mm | 0.45 m/s, 129° | - | - |
| 1778039130 | 23.33° C | 90% | 1009.6 hPa | 0 mm | 0.45 m/s, 116° | - | - |
| 1778038229 | 23.33° C | 90% | 1009.6 hPa | 0 mm | 0.89 m/s, 144° | - | - |
| 1778037337 | 23.33° C | 89% | 1009.6 hPa | 0 mm | 0.45 m/s, 80° | - | - |
| 1778036429 | 23.33° C | 89% | 1009.6 hPa | 0 mm | 0.45 m/s, 62° | - | - |
| 1778035537 | 23.33° C | 88% | 1009.4 hPa | 0 mm | 0.45 m/s, 140° | - | - |
| 1778034635 | 23.33° C | 87% | 1009.3 hPa | 0 mm | 0.45 m/s, 96° | - | - |
| 1778033727 | 23.89° C | 86% | 1009.2 hPa | 0 mm | 0.45 m/s, 164° | - | - |
| 1778032826 | 23.89° C | 85% | 1009 hPa | 0 mm | 0.89 m/s, 110° | - | - |
| 1778031927 | 23.89° C | 85% | 1008.9 hPa | 0 mm | 0.45 m/s, 87° | - | - |
| 1778031029 | 23.89° C | 85% | 1008.9 hPa | 0 mm | 0 m/s | - | - |
| 1778030155 | 24.44° C | 84% | 1008.9 hPa | 0 mm | 0 m/s | - | - |
| 1778029224 | 24.44° C | 83% | 1008.9 hPa | 0 mm | 0.45 m/s, 140° | - | - |
| 1778028322 | 24.44° C | 83% | 1009 hPa | 0 mm | 0.45 m/s, 120° | - | - |
| 1778027423 | 25° C | 81% | 1009 hPa | 0 mm | 0 m/s | - | - |
| 1778026522 | 25° C | 79% | 1008.9 hPa | 0 mm | 0.89 m/s, 104° | - | - |
* Rain latest hour (hover to see other rain measurements)
** Current wind speed in m/s (hover to see current wind gust speed)